Regional Weather Roundup
Issued by NWS

Home | Current Version | Previous Version | Text Only | Print | Product List | Glossary Off
Versions: 1 2 3 4 5 6 7 8 9 10 11 12 13 14 15 16 17 18 19 20 21 22 23 24 25 26 27 28 29 30 31 32 33 34 35 36 37 38 39 40 41 42 43 44 45 46 47 48 49 50

000
ASUS45 KSLC 021310
RWRUT
UTAH REGIONAL WEATHER ROUNDUP
NATIONAL WEATHER SERVICE SALT LAKE CITY UT
700 AM MDT SUN AUG 02 2015

UTZ001>011-023>025-021400-

NORTHERN UTAH

CITY           SKY/WX    TMP DP  RH WIND       PRES   REMARKS
BRIGHAM CITY   CLEAR     60  40  46 N3        30.01S
HILL AFB       PTCLDY    64  37  35 E22       30.04R
LOGAN          CLEAR     55  42  61 CALM      30.06R
OGDEN          PTCLDY    66  37  34 S7        30.01R
PROVO AIRPORT  PTCLDY    57  43  58 CALM      30.05R
SALT LAKE CITY MOCLDY    68  43  40 SE5       30.00R
VERNAL         CLEAR     64  38  38 CALM      30.12R
WENDOVER       CLOUDY    79  36  21 CALM      30.01R
HEBER CITY     CLEAR     46  39  76 CALM      30.15R
WEST JORDAN    CLEAR     64  37  36 S5        30.03R

$$

UTZ012>022-026-027-021400-

SOUTHERN/CENTRAL UTAH

CITY           SKY/WX    TMP DP  RH WIND       PRES   REMARKS
BLANDING       CLOUDY    61  60  96 CALM      30.28R
BRYCE CANYON   MOCLDY    52  47  83 W3        30.27R
CEDAR CITY     MOCLDY    68  50  52 S14       30.10S
DELTA          CLOUDY    68  31  24 E3        30.04S
HANKSVILLE     MOCLDY    70  52  52 N3        30.07R
MILFORD        MOCLDY    66  49  54 S6        30.05R
MOAB/CYNLANDS  CLEAR     68  51  54 S5        30.05S
PRICE          PTCLDY    66  48  52 NE8       30.16S
ST GEORGE      SUNNY     75  54  46 SE7       29.99R
KANAB          MOCLDY    64  55  72 CALM      30.16R

$$

REGIONAL REPORTS     COLORADO/ARIZONA

CITY           SKY/WX    TMP DP  RH WIND       PRES   REMARKS
CRAIG, CO      PTCLDY    50  43  77 CALM      30.22R
GRAND JUNCTION CLOUDY    70  52  52 SE7       30.11R
RIFLE          MOCLDY    64  49  57 CALM      30.17R
MONTROSE       CLOUDY    64  54  69 S8        30.20R
CORTEZ         RAIN      62  59  90 SW3       30.21R FOG
PAGE, AZ       CLOUDY    76  57  51 S13       30.03S
GRAND CANYON   MOCLDY    55  54  96 CALM      30.22R
KINGMAN        MOCLDY    67  54  63 E6        30.00S
FLAGSTAFF      PTCLDY    54  52  93 CALM      30.26R

$$

REGIONAL REPORTS    NEVADA/IDAHO/WYOMING

CITY           SKY/WX    TMP DP  RH WIND       PRES   REMARKS
LAS VEGAS, NV  PTCLDY    77  55  46 CALM      29.88R
ELY            CLOUDY    64  42  44 N6        30.19R
ELKO           MOCLDY    64  42  44 CALM      30.13R
POCATELLO, ID  CLEAR     59  38  45 E7        30.05R
BURLEY         CLEAR     53  46  77 CALM      30.00R
EVANSTON, WY   CLEAR     56  29  35 S5        30.24R
ROCK SPRINGS   MOCLDY    55  29  36 N3        30.22R
KEMMERER       MOCLDY    50  32  50 N7        30.26R

$$



USA.gov is the U.S. government's official web portal to all federal, state and local government web resources and services.